Time,TemperatureF,DewpointF,PressureIn,WindDirection,WindDirectionDegrees,WindSpeedMPH,WindSpeedGustMPH,Humidity,HourlyPrecipIn,Conditions,Clouds,dailyrainin,SoftwareType,DateUTC
2013-05-29 00:05:00,58.6,51.4,30.00,WSW,241,3.0,6.0,77,0.00,,,0.00,meteohub,2013-05-29 07:05:00,
2013-05-29 00:10:00,58.6,51.1,30.00,WSW,239,4.0,6.0,76,0.00,,,0.00,meteohub,2013-05-29 07:10:00,
2013-05-29 00:15:00,58.8,49.1,29.99,WSW,242,0.0,6.0,70,0.00,,,0.00,meteohub,2013-05-29 07:15:00,
2013-05-29 00:20:00,58.8,51.6,29.99,SSE,168,3.0,8.0,77,0.00,,,0.00,meteohub,2013-05-29 07:20:00,
2013-05-29 00:25:00,58.3,51.8,29.99,SE,127,9.0,9.0,79,0.00,,,0.00,meteohub,2013-05-29 07:25:00,
2013-05-29 00:30:00,57.6,51.8,29.99,SE,141,7.0,10.0,81,0.00,,,0.00,meteohub,2013-05-29 07:30:00,
2013-05-29 00:35:00,57.2,52.2,29.99,SE,140,3.0,10.0,83,0.00,,,0.00,meteohub,2013-05-29 07:35:00,
2013-05-29 00:40:00,57.0,52.0,29.99,SE,135,4.0,10.0,83,0.00,,,0.00,meteohub,2013-05-29 07:40:00,
2013-05-29 00:45:00,56.8,52.0,29.99,SE,137,5.0,10.0,84,0.00,,,0.00,meteohub,2013-05-29 07:45:00,
2013-05-29 00:50:00,57.0,52.2,29.99,SE,142,4.0,8.0,84,0.00,,,0.00,meteohub,2013-05-29 07:50:00,
2013-05-29 00:55:00,57.4,52.5,29.99,SSW,195,4.0,10.0,84,0.00,,,0.00,meteohub,2013-05-29 07:55:00,
2013-05-29 01:00:00,57.0,52.2,29.99,South,187,7.0,10.0,84,0.00,,,0.00,meteohub,2013-05-29 08:00:00,
2013-05-29 01:05:00,56.8,52.0,30.00,South,190,7.0,10.0,84,0.00,,,0.00,meteohub,2013-05-29 08:05:00,
2013-05-29 01:10:00,56.8,52.0,30.00,South,180,7.0,10.0,84,0.00,,,0.00,meteohub,2013-05-29 08:10:00,
2013-05-29 01:15:00,56.7,52.2,30.00,SSW,204,7.0,10.0,85,0.00,,,0.00,meteohub,2013-05-29 08:15:00,
2013-05-29 01:20:00,56.7,52.2,30.00,SW,216,8.0,10.0,85,0.00,,,0.00,meteohub,2013-05-29 08:20:00,
2013-05-29 01:25:00,56.5,52.3,29.99,SSW,213,7.0,10.0,86,0.00,,,0.00,meteohub,2013-05-29 08:25:00,
2013-05-29 01:30:00,56.1,52.0,29.99,South,183,6.0,10.0,86,0.00,,,0.00,meteohub,2013-05-29 08:30:00,
2013-05-29 01:35:00,55.9,51.8,29.99,South,170,2.0,10.0,86,0.00,,,0.00,meteohub,2013-05-29 08:35:00,
2013-05-29 01:40:00,55.9,52.2,29.98,South,170,4.0,10.0,87,0.00,,,0.00,meteohub,2013-05-29 08:40:00,
2013-05-29 01:45:00,55.9,51.8,29.98,South,170,0.0,10.0,86,0.00,,,0.00,meteohub,2013-05-29 08:45:00,
2013-05-29 01:50:00,55.8,51.6,29.98,South,171,0.0,7.0,86,0.00,,,0.00,meteohub,2013-05-29 08:50:00,
2013-05-29 01:55:00,55.8,51.3,29.99,South,170,0.0,6.0,85,0.00,,,0.00,meteohub,2013-05-29 08:55:00,
2013-05-29 02:00:00,55.9,51.4,29.99,South,170,2.0,6.0,85,0.00,,,0.00,meteohub,2013-05-29 09:00:00,
2013-05-29 02:05:00,56.1,51.6,29.99,South,170,0.0,3.0,85,0.00,,,0.00,meteohub,2013-05-29 09:05:00,
2013-05-29 02:10:00,56.1,52.0,29.99,South,170,2.0,4.0,86,0.00,,,0.00,meteohub,2013-05-29 09:10:00,
2013-05-29 02:15:00,55.9,51.8,29.99,ESE,113,5.0,5.0,86,0.00,,,0.00,meteohub,2013-05-29 09:15:00,
2013-05-29 02:20:00,55.9,52.2,29.99,ESE,112,5.0,5.0,87,0.00,,,0.00,meteohub,2013-05-29 09:20:00,
2013-05-29 02:25:00,55.8,52.3,29.99,ESE,113,4.0,7.0,88,0.00,,,0.00,meteohub,2013-05-29 09:25:00,
2013-05-29 02:30:00,55.8,52.3,29.99,ESE,113,0.0,7.0,88,0.00,,,0.00,meteohub,2013-05-29 09:30:00,
2013-05-29 02:35:00,55.8,52.0,29.99,SE,142,3.0,7.0,87,0.00,,,0.00,meteohub,2013-05-29 09:35:00,
2013-05-29 02:40:00,55.9,51.8,29.99,SSW,195,0.0,6.0,86,0.00,,,0.00,meteohub,2013-05-29 09:40:00,
2013-05-29 02:45:00,55.9,51.3,29.99,SW,231,5.0,6.0,84,0.00,,,0.00,meteohub,2013-05-29 09:45:00,
2013-05-29 02:50:00,56.7,49.8,29.99,WSW,247,1.0,7.0,78,0.00,,,0.00,meteohub,2013-05-29 09:50:00,
2013-05-29 02:55:00,57.6,49.6,30.00,WSW,255,3.0,7.0,75,0.00,,,0.00,meteohub,2013-05-29 09:55:00,
2013-05-29 03:00:00,57.9,49.3,30.00,WSW,254,7.0,8.0,73,0.00,,,0.00,meteohub,2013-05-29 10:00:00,
2013-05-29 03:06:00,58.3,48.2,30.00,SW,235,4.0,13.0,69,0.00,,,0.00,meteohub,2013-05-29 10:06:00,
2013-05-29 03:11:00,58.5,48.4,30.00,WSW,246,2.0,13.0,69,0.00,,,0.00,meteohub,2013-05-29 10:11:00,
2013-05-29 03:16:00,58.5,48.4,29.99,West,270,3.0,13.0,69,0.00,,,0.00,meteohub,2013-05-29 10:16:00,
2013-05-29 03:21:00,58.5,49.1,29.99,WSW,247,4.0,11.0,71,0.00,,,0.00,meteohub,2013-05-29 10:21:00,
2013-05-29 03:26:00,58.5,49.5,29.99,SW,235,3.0,11.0,72,0.00,,,0.00,meteohub,2013-05-29 10:26:00,
2013-05-29 03:31:00,58.5,50.5,29.99,SSW,212,4.0,7.0,75,0.00,,,0.00,meteohub,2013-05-29 10:31:00,
2013-05-29 03:36:00,57.9,50.7,29.99,SSW,212,2.0,7.0,77,0.00,,,0.00,meteohub,2013-05-29 10:36:00,
2013-05-29 03:41:00,57.7,50.2,29.98,SSW,210,2.0,7.0,76,0.00,,,0.00,meteohub,2013-05-29 10:41:00,
2013-05-29 03:46:00,57.7,50.2,29.98,SW,234,3.0,6.0,76,0.00,,,0.00,meteohub,2013-05-29 10:46:00,
2013-05-29 03:51:00,57.6,50.0,29.99,SW,224,1.0,6.0,76,0.00,,,0.00,meteohub,2013-05-29 10:51:00,
2013-05-29 03:56:00,57.6,49.6,29.99,SW,233,4.0,7.0,75,0.00,,,0.00,meteohub,2013-05-29 10:56:00,
2013-05-29 04:01:00,57.7,49.8,29.99,SSW,212,5.0,7.0,75,0.00,,,0.00,meteohub,2013-05-29 11:01:00,
2013-05-29 04:06:00,57.9,49.6,29.99,SW,232,3.0,9.0,74,0.00,,,0.00,meteohub,2013-05-29 11:06:00,
2013-05-29 04:11:00,57.9,50.4,29.99,SW,219,1.0,9.0,76,0.00,,,0.00,meteohub,2013-05-29 11:11:00,
2013-05-29 04:16:00,57.7,50.2,29.98,SW,219,2.0,9.0,76,0.00,,,0.00,meteohub,2013-05-29 11:16:00,
2013-05-29 04:21:00,57.7,49.5,29.99,West,260,5.0,7.0,74,0.00,,,0.00,meteohub,2013-05-29 11:21:00,
2013-05-29 04:26:00,58.1,49.5,29.99,West,260,1.0,9.0,73,0.00,,,0.00,meteohub,2013-05-29 11:26:00,
2013-05-29 04:31:00,58.3,49.3,29.99,West,260,3.0,9.0,72,0.00,,,0.00,meteohub,2013-05-29 11:31:00,
2013-05-29 04:36:00,58.5,49.8,29.99,WSW,255,6.0,9.0,73,0.00,,,0.00,meteohub,2013-05-29 11:36:00,
2013-05-29 04:41:00,58.5,49.5,29.99,West,262,8.0,15.0,72,0.00,,,0.00,meteohub,2013-05-29 11:41:00,
2013-05-29 04:46:00,58.5,49.8,29.99,West,261,8.0,15.0,73,0.00,,,0.00,meteohub,2013-05-29 11:46:00,
2013-05-29 04:51:00,58.3,49.6,29.99,West,260,6.0,15.0,73,0.00,,,0.00,meteohub,2013-05-29 11:51:00,
2013-05-29 04:56:00,58.3,49.3,29.99,West,264,6.0,13.0,72,0.00,,,0.00,meteohub,2013-05-29 11:56:00,
2013-05-29 05:01:00,58.3,49.6,29.99,WSW,249,4.0,13.0,73,0.00,,,0.00,meteohub,2013-05-29 12:01:00,
2013-05-29 05:06:00,58.3,50.0,29.99,West,263,4.0,13.0,74,0.00,,,0.00,meteohub,2013-05-29 12:06:00,
2013-05-29 05:11:00,58.3,50.4,29.98,SSW,210,4.0,13.0,75,0.00,,,0.00,meteohub,2013-05-29 12:11:00,
2013-05-29 05:16:00,58.1,50.5,29.99,SSW,194,0.0,8.0,76,0.00,,,0.00,meteohub,2013-05-29 12:16:00,
2013-05-29 05:21:00,57.9,51.1,29.99,SSW,194,2.0,8.0,78,0.00,,,0.00,meteohub,2013-05-29 12:21:00,
2013-05-29 05:26:00,57.6,51.4,29.99,SSW,194,3.0,7.0,80,0.00,,,0.00,meteohub,2013-05-29 12:26:00,
2013-05-29 05:31:00,57.2,51.1,29.98,SSW,194,3.0,5.0,80,0.00,,,0.00,meteohub,2013-05-29 12:31:00,
2013-05-29 05:36:00,56.8,51.1,29.98,SSW,193,3.0,5.0,81,0.00,,,0.00,meteohub,2013-05-29 12:36:00,
2013-05-29 05:41:00,56.7,51.3,29.99,South,189,6.0,6.0,82,0.00,,,0.00,meteohub,2013-05-29 12:41:00,
2013-05-29 05:46:00,56.5,51.4,29.99,South,189,0.0,7.0,83,0.00,,,0.00,meteohub,2013-05-29 12:46:00,
2013-05-29 05:52:00,56.5,51.4,29.99,SSW,200,3.0,7.0,83,0.00,,,0.00,meteohub,2013-05-29 12:52:00,
2013-05-29 05:57:00,56.5,51.4,29.99,SSW,199,0.0,7.0,83,0.00,,,0.00,meteohub,2013-05-29 12:57:00,
2013-05-29 06:02:00,56.3,51.3,29.99,South,187,5.0,5.0,83,0.00,,,0.00,meteohub,2013-05-29 13:02:00,
2013-05-29 06:07:00,56.1,51.1,29.99,South,188,3.0,6.0,83,0.00,,,0.00,meteohub,2013-05-29 13:07:00,
2013-05-29 06:12:00,55.9,50.9,29.98,SSW,199,7.0,7.0,83,0.00,,,0.00,meteohub,2013-05-29 13:12:00,
2013-05-29 06:17:00,55.9,51.3,29.99,SSW,197,4.0,7.0,84,0.00,,,0.00,meteohub,2013-05-29 13:17:00,
2013-05-29 06:22:00,56.1,51.1,29.99,South,189,3.0,7.0,83,0.00,,,0.00,meteohub,2013-05-29 13:22:00,
2013-05-29 06:27:00,56.1,51.1,29.99,South,185,4.0,7.0,83,0.00,,,0.00,meteohub,2013-05-29 13:27:00,
2013-05-29 06:32:00,56.1,51.1,29.99,SSE,158,5.0,7.0,83,0.00,,,0.00,meteohub,2013-05-29 13:32:00,
2013-05-29 06:37:00,56.1,51.4,29.99,South,183,6.0,7.0,84,0.00,,,0.00,meteohub,2013-05-29 13:37:00,
2013-05-29 06:42:00,56.1,51.4,29.99,SSE,164,2.0,9.0,84,0.00,,,0.00,meteohub,2013-05-29 13:42:00,
2013-05-29 06:47:00,56.1,51.4,30.00,SSE,167,5.0,9.0,84,0.00,,,0.00,meteohub,2013-05-29 13:47:00,
2013-05-29 06:52:00,56.1,51.6,29.99,South,175,2.0,9.0,85,0.00,,,0.00,meteohub,2013-05-29 13:52:00,
2013-05-29 06:57:00,56.1,51.6,29.99,SE,137,3.0,9.0,85,0.00,,,0.00,meteohub,2013-05-29 13:57:00,
2013-05-29 07:02:00,56.1,51.6,29.99,SSE,157,6.0,9.0,85,0.00,,,0.00,meteohub,2013-05-29 14:02:00,
2013-05-29 07:07:00,56.1,51.6,29.99,SSE,160,5.0,9.0,85,0.00,,,0.00,meteohub,2013-05-29 14:07:00,
2013-05-29 07:12:00,56.1,51.6,30.00,SSE,156,3.0,9.0,85,0.00,,,0.00,meteohub,2013-05-29 14:12:00,
2013-05-29 07:17:00,56.1,52.0,30.00,South,183,0.0,10.0,86,0.00,,,0.00,meteohub,2013-05-29 14:17:00,
2013-05-29 07:22:00,56.1,51.6,30.00,South,186,5.0,10.0,85,0.00,,,0.00,meteohub,2013-05-29 14:22:00,
2013-05-29 07:27:00,56.1,52.0,30.01,South,181,3.0,10.0,86,0.00,,,0.00,meteohub,2013-05-29 14:27:00,
2013-05-29 07:32:00,56.1,52.0,30.01,South,183,3.0,8.0,86,0.00,,,0.00,meteohub,2013-05-29 14:32:00,
2013-05-29 07:37:00,56.5,52.0,30.01,South,184,3.0,8.0,85,0.00,,,0.00,meteohub,2013-05-29 14:37:00,
2013-05-29 07:42:00,56.5,51.6,30.01,South,179,0.0,7.0,84,0.00,,,0.00,meteohub,2013-05-29 14:42:00,
2013-05-29 07:47:00,56.7,51.6,30.01,South,179,2.0,7.0,83,0.00,,,0.00,meteohub,2013-05-29 14:47:00,
2013-05-29 07:52:00,56.8,51.8,30.01,South,179,4.0,7.0,83,0.00,,,0.00,meteohub,2013-05-29 14:52:00,
2013-05-29 07:57:00,57.0,52.2,30.01,South,177,3.0,4.0,84,0.00,,,0.00,meteohub,2013-05-29 14:57:00,
2013-05-29 08:02:00,57.4,52.5,30.01,SSE,151,4.0,5.0,84,0.00,,,0.00,meteohub,2013-05-29 15:02:00,
2013-05-29 08:07:00,57.4,52.9,30.01,South,170,5.0,6.0,85,0.00,,,0.00,meteohub,2013-05-29 15:07:00,
2013-05-29 08:12:00,57.2,52.7,30.01,South,189,8.0,8.0,85,0.00,,,0.00,meteohub,2013-05-29 15:12:00,
2013-05-29 08:17:00,56.8,52.3,30.01,South,191,3.0,8.0,85,0.00,,,0.00,meteohub,2013-05-29 15:17:00,
2013-05-29 08:22:00,56.7,52.5,30.02,SSW,206,7.0,8.0,86,0.00,,,0.00,meteohub,2013-05-29 15:22:00,
2013-05-29 08:27:00,56.7,52.9,30.02,SSW,202,6.0,8.0,87,0.00,,,0.00,meteohub,2013-05-29 15:27:00,
2013-05-29 08:32:00,56.5,52.7,30.02,SSW,201,4.0,7.0,87,0.00,,,0.00,meteohub,2013-05-29 15:32:00,
2013-05-29 08:38:00,56.7,52.9,30.02,SSW,196,6.0,9.0,87,0.00,,,0.00,meteohub,2013-05-29 15:38:00,
2013-05-29 08:43:00,56.5,52.7,30.02,SSW,197,6.0,9.0,87,0.00,,,0.00,meteohub,2013-05-29 15:43:00,
2013-05-29 08:48:00,56.5,52.9,30.03,SSW,197,4.0,8.0,88,0.00,,,0.00,meteohub,2013-05-29 15:48:00,
2013-05-29 08:53:00,56.7,53.1,30.03,South,191,4.0,8.0,88,0.00,,,0.00,meteohub,2013-05-29 15:53:00,
2013-05-29 08:58:00,56.7,53.1,30.03,SSW,200,6.0,8.0,88,0.00,,,0.00,meteohub,2013-05-29 15:58:00,
2013-05-29 09:03:00,56.7,53.1,30.02,SW,220,4.0,8.0,88,0.00,,,0.00,meteohub,2013-05-29 16:03:00,
2013-05-29 09:08:00,56.8,53.2,30.02,SW,221,8.0,8.0,88,0.00,,,0.00,meteohub,2013-05-29 16:08:00,
2013-05-29 09:13:00,56.8,53.2,30.02,SW,222,4.0,10.0,88,0.00,,,0.00,meteohub,2013-05-29 16:13:00,
2013-05-29 09:18:00,56.8,53.2,30.02,SW,221,5.0,10.0,88,0.00,,,0.00,meteohub,2013-05-29 16:18:00,
2013-05-29 09:23:00,57.0,53.4,30.02,SW,222,4.0,10.0,88,0.00,,,0.00,meteohub,2013-05-29 16:23:00,
2013-05-29 09:28:00,57.0,53.4,30.02,SSW,199,7.0,9.0,88,0.00,,,0.00,meteohub,2013-05-29 16:28:00,
2013-05-29 09:33:00,57.2,53.6,30.02,SSW,199,5.0,9.0,88,0.00,,,0.00,meteohub,2013-05-29 16:33:00,
2013-05-29 09:38:00,57.4,53.6,30.02,SSW,201,6.0,9.0,87,0.00,,,0.00,meteohub,2013-05-29 16:38:00,
2013-05-29 09:43:00,57.4,53.6,30.02,SSW,200,7.0,8.0,87,0.00,,,0.00,meteohub,2013-05-29 16:43:00,
2013-05-29 09:48:00,57.6,54.0,30.02,SSW,201,5.0,8.0,88,0.00,,,0.00,meteohub,2013-05-29 16:48:00,
2013-05-29 09:53:00,57.7,54.0,30.02,South,189,7.0,8.0,87,0.00,,,0.00,meteohub,2013-05-29 16:53:00,
2013-05-29 09:58:00,58.3,54.5,30.02,SW,227,5.0,8.0,87,0.00,,,0.00,meteohub,2013-05-29 16:58:00,
2013-05-29 10:03:00,58.6,54.5,30.02,WSW,238,5.0,8.0,86,0.00,,,0.00,meteohub,2013-05-29 17:03:00,
2013-05-29 10:08:00,59.2,54.7,30.02,SW,221,7.0,9.0,85,0.00,,,0.00,meteohub,2013-05-29 17:08:00,
2013-05-29 10:13:00,59.4,54.5,30.01,SW,227,6.0,9.0,84,0.00,,,0.00,meteohub,2013-05-29 17:13:00,
2013-05-29 10:18:00,59.7,54.5,30.01,SW,236,6.0,10.0,83,0.00,,,0.00,meteohub,2013-05-29 17:18:00,
2013-05-29 10:23:00,60.3,55.0,30.01,SSW,212,5.0,11.0,83,0.00,,,0.00,meteohub,2013-05-29 17:23:00,
2013-05-29 10:28:00,60.6,55.0,30.01,SW,235,4.0,11.0,82,0.00,,,0.00,meteohub,2013-05-29 17:28:00,
2013-05-29 10:33:00,61.5,55.2,30.01,SW,217,10.0,11.0,80,0.00,,,0.00,meteohub,2013-05-29 17:33:00,
2013-05-29 10:38:00,61.0,55.0,30.01,SW,231,8.0,13.0,81,0.00,,,0.00,meteohub,2013-05-29 17:38:00,
2013-05-29 10:43:00,60.6,54.7,30.00,SW,225,8.0,13.0,81,0.00,,,0.00,meteohub,2013-05-29 17:43:00,
2013-05-29 10:48:00,61.3,55.0,30.00,SW,235,9.0,15.0,80,0.00,,,0.00,meteohub,2013-05-29 17:48:00,
2013-05-29 10:53:00,61.7,54.9,30.00,WSW,237,13.0,15.0,78,0.00,,,0.00,meteohub,2013-05-29 17:53:00,
2013-05-29 10:58:00,61.3,54.9,30.00,WSW,253,9.0,15.0,79,0.00,,,0.00,meteohub,2013-05-29 17:58:00,
2013-05-29 11:04:00,61.5,54.7,30.01,SW,235,9.0,16.0,78,0.00,,,0.00,meteohub,2013-05-29 18:04:00,
2013-05-29 11:09:00,61.9,54.9,30.01,SW,232,8.0,16.0,78,0.00,,,0.00,meteohub,2013-05-29 18:09:00,
2013-05-29 11:14:00,62.1,54.3,30.01,WSW,251,9.0,15.0,76,0.00,,,0.00,meteohub,2013-05-29 18:14:00,
2013-05-29 11:19:00,62.1,54.7,30.00,WSW,243,8.0,15.0,77,0.00,,,0.00,meteohub,2013-05-29 18:19:00,
2013-05-29 11:24:00,62.8,55.0,30.01,SSW,201,7.0,14.0,76,0.00,,,0.00,meteohub,2013-05-29 18:24:00,
2013-05-29 11:29:00,61.9,54.7,30.01,SSW,212,9.0,14.0,77,0.00,,,0.00,meteohub,2013-05-29 18:29:00,
2013-05-29 11:34:00,60.6,54.5,30.01,WSW,242,9.0,19.0,80,0.00,,,0.00,meteohub,2013-05-29 18:34:00,
2013-05-29 11:39:00,60.6,54.5,30.01,WSW,241,11.0,19.0,80,0.00,,,0.00,meteohub,2013-05-29 18:39:00,
2013-05-29 11:44:00,60.6,54.7,30.01,South,175,10.0,20.0,81,0.00,,,0.00,meteohub,2013-05-29 18:44:00,
2013-05-29 11:49:00,60.3,54.7,30.01,SSW,210,7.0,20.0,82,0.00,,,0.00,meteohub,2013-05-29 18:49:00,
2013-05-29 11:54:00,60.4,54.5,30.01,SW,233,12.0,20.0,81,0.00,,,0.00,meteohub,2013-05-29 18:54:00,
2013-05-29 11:59:00,60.6,54.7,30.01,SSW,194,8.0,18.0,81,0.00,,,0.00,meteohub,2013-05-29 18:59:00,
2013-05-29 12:04:00,61.2,55.2,30.01,SSW,208,4.0,16.0,81,0.00,,,0.00,meteohub,2013-05-29 19:04:00,
2013-05-29 12:09:00,61.2,54.9,30.02,SSW,206,9.0,15.0,80,0.00,,,0.00,meteohub,2013-05-29 19:09:00,
2013-05-29 12:14:00,60.6,54.7,30.01,WSW,254,10.0,14.0,81,0.00,,,0.00,meteohub,2013-05-29 19:14:00,
2013-05-29 12:19:00,61.3,54.9,30.01,SSW,197,11.0,14.0,79,0.00,,,0.00,meteohub,2013-05-29 19:19:00,
2013-05-29 12:24:00,62.2,55.2,30.01,SW,223,11.0,14.0,78,0.00,,,0.00,meteohub,2013-05-29 19:24:00,
2013-05-29 12:29:00,62.4,55.4,30.01,SW,234,12.0,12.0,78,0.00,,,0.00,meteohub,2013-05-29 19:29:00,
2013-05-29 12:34:00,62.4,54.7,30.01,SSW,211,7.0,12.0,76,0.00,,,0.00,meteohub,2013-05-29 19:34:00,
2013-05-29 12:39:00,62.4,54.7,30.01,SW,225,6.0,12.0,76,0.00,,,0.00,meteohub,2013-05-29 19:39:00,
2013-05-29 12:44:00,63.0,55.2,30.00,SSW,210,6.0,12.0,76,0.00,,,0.00,meteohub,2013-05-29 19:44:00,
2013-05-29 12:49:00,63.1,55.4,30.00,SSE,160,6.0,11.0,76,0.00,,,0.00,meteohub,2013-05-29 19:49:00,
2013-05-29 12:54:00,63.1,55.4,30.00,SSE,149,7.0,11.0,76,0.00,,,0.00,meteohub,2013-05-29 19:54:00,
2013-05-29 12:59:00,63.3,55.2,30.00,SSW,213,7.0,10.0,75,0.00,,,0.00,meteohub,2013-05-29 19:59:00,
2013-05-29 13:04:00,63.7,55.2,30.00,South,187,8.0,11.0,74,0.00,,,0.00,meteohub,2013-05-29 20:04:00,
2013-05-29 13:09:00,63.0,54.5,30.00,SSW,204,6.0,11.0,74,0.00,,,0.00,meteohub,2013-05-29 20:09:00,
2013-05-29 13:14:00,63.0,54.5,29.99,South,181,7.0,11.0,74,0.00,,,0.00,meteohub,2013-05-29 20:14:00,
2013-05-29 13:19:00,63.1,55.4,29.99,South,172,6.0,10.0,76,0.00,,,0.00,meteohub,2013-05-29 20:19:00,
2013-05-29 13:25:00,63.1,55.0,29.99,SSW,196,10.0,10.0,75,0.00,,,0.00,meteohub,2013-05-29 20:25:00,
2013-05-29 13:30:00,62.8,54.7,29.99,SSW,199,7.0,11.0,75,0.00,,,0.00,meteohub,2013-05-29 20:30:00,
2013-05-29 13:35:00,62.8,54.7,29.99,SW,215,11.0,11.0,75,0.00,,,0.00,meteohub,2013-05-29 20:35:00,
2013-05-29 13:40:00,62.6,54.5,29.99,SSW,206,6.0,12.0,75,0.00,,,0.00,meteohub,2013-05-29 20:40:00,
2013-05-29 13:45:00,63.0,54.9,29.99,SSE,164,6.0,14.0,75,0.00,,,0.00,meteohub,2013-05-29 20:45:00,
2013-05-29 13:50:00,63.1,54.7,29.99,SSE,165,6.0,14.0,74,0.00,,,0.00,meteohub,2013-05-29 20:50:00,
2013-05-29 13:55:00,62.6,54.9,29.99,SSE,168,4.0,14.0,76,0.00,,,0.00,meteohub,2013-05-29 20:55:00,
2013-05-29 14:00:00,63.1,54.7,29.99,SSW,206,7.0,13.0,74,0.00,,,0.00,meteohub,2013-05-29 21:00:00,
2013-05-29 14:05:00,63.1,54.3,29.99,SSW,193,9.0,13.0,73,0.00,,,0.00,meteohub,2013-05-29 21:05:00,
2013-05-29 14:10:00,63.0,54.1,29.98,SSW,211,6.0,13.0,73,0.00,,,0.00,meteohub,2013-05-29 21:10:00,
2013-05-29 14:15:00,63.9,55.0,29.98,SSW,198,8.0,11.0,73,0.00,,,0.00,meteohub,2013-05-29 21:15:00,
2013-05-29 14:20:00,64.0,54.5,29.98,South,187,7.0,12.0,71,0.00,,,0.00,meteohub,2013-05-29 21:20:00,
2013-05-29 14:25:00,64.4,55.6,29.98,South,169,7.0,14.0,73,0.00,,,0.00,meteohub,2013-05-29 21:25:00,
2013-05-29 14:30:00,64.9,55.4,29.98,SSW,203,4.0,14.0,71,0.00,,,0.00,meteohub,2013-05-29 21:30:00,
2013-05-29 14:35:00,65.1,54.3,29.98,SSW,209,8.0,14.0,68,0.00,,,0.00,meteohub,2013-05-29 21:35:00,
2013-05-29 14:40:00,65.3,55.2,29.98,South,180,7.0,12.0,70,0.00,,,0.00,meteohub,2013-05-29 21:40:00,
2013-05-29 14:45:00,65.5,55.0,29.97,South,185,7.0,13.0,69,0.00,,,0.00,meteohub,2013-05-29 21:45:00,
2013-05-29 14:50:00,65.8,55.4,29.97,SSW,208,7.0,13.0,69,0.00,,,0.00,meteohub,2013-05-29 21:50:00,
2013-05-29 14:55:00,66.7,55.8,29.97,South,189,8.0,13.0,68,0.00,,,0.00,meteohub,2013-05-29 21:55:00,
2013-05-29 15:00:00,66.7,55.0,29.97,SSE,149,8.0,12.0,66,0.00,,,0.00,meteohub,2013-05-29 22:00:00,
2013-05-29 15:05:00,66.2,54.9,29.97,SSW,204,5.0,11.0,67,0.00,,,0.00,meteohub,2013-05-29 22:05:00,
2013-05-29 15:10:00,66.6,54.9,29.97,South,170,8.0,13.0,66,0.00,,,0.00,meteohub,2013-05-29 22:10:00,
2013-05-29 15:15:00,66.7,54.1,29.96,SSE,162,6.0,13.0,64,0.00,,,0.00,meteohub,2013-05-29 22:15:00,
2013-05-29 15:20:00,66.6,54.5,29.96,South,191,7.0,12.0,65,0.00,,,0.00,meteohub,2013-05-29 22:20:00,
2013-05-29 15:25:00,66.9,54.3,29.96,SSE,153,1.0,11.0,64,0.00,,,0.00,meteohub,2013-05-29 22:25:00,
2013-05-29 15:30:00,67.6,54.7,29.96,SSE,152,9.0,10.0,63,0.00,,,0.00,meteohub,2013-05-29 22:30:00,
2013-05-29 15:35:00,67.6,54.7,29.96,SSE,157,9.0,11.0,63,0.00,,,0.00,meteohub,2013-05-29 22:35:00,
2013-05-29 15:40:00,67.6,55.0,29.96,SSW,199,7.0,12.0,64,0.00,,,0.00,meteohub,2013-05-29 22:40:00,
2013-05-29 15:45:00,67.6,55.0,29.96,South,183,10.0,12.0,64,0.00,,,0.00,meteohub,2013-05-29 22:45:00,
2013-05-29 15:50:00,67.6,55.0,29.96,South,181,7.0,12.0,64,0.00,,,0.00,meteohub,2013-05-29 22:50:00,
2013-05-29 15:55:00,67.6,54.7,29.96,South,185,9.0,14.0,63,0.00,,,0.00,meteohub,2013-05-29 22:55:00,
2013-05-29 16:00:00,67.5,54.5,29.96,SSW,195,7.0,14.0,63,0.00,,,0.00,meteohub,2013-05-29 23:00:00,
2013-05-29 16:05:00,67.5,54.5,29.96,SSW,195,8.0,14.0,63,0.00,,,0.00,meteohub,2013-05-29 23:05:00,
2013-05-29 16:11:00,67.8,54.7,29.96,SSW,201,7.0,12.0,63,0.00,,,0.00,meteohub,2013-05-29 23:11:00,
2013-05-29 16:16:00,68.7,54.7,29.96,South,191,3.0,12.0,61,0.00,,,0.00,meteohub,2013-05-29 23:16:00,
2013-05-29 16:21:00,68.9,53.1,29.95,WNW,285,11.0,15.0,57,0.00,,,0.00,meteohub,2013-05-29 23:21:00,
2013-05-29 16:26:00,69.4,52.5,29.95,West,259,16.0,16.0,55,0.00,,,0.00,meteohub,2013-05-29 23:26:00,
2013-05-29 16:31:00,69.4,51.6,29.96,WSW,255,13.0,18.0,53,0.00,,,0.00,meteohub,2013-05-29 23:31:00,
2013-05-29 16:36:00,68.5,51.3,29.96,West,276,16.0,18.0,54,0.00,,,0.00,meteohub,2013-05-29 23:36:00,
2013-05-29 16:41:00,68.7,52.0,29.96,WNW,293,17.0,19.0,55,0.00,,,0.00,meteohub,2013-05-29 23:41:00,
2013-05-29 16:46:00,68.9,51.6,29.96,West,269,13.0,19.0,54,0.00,,,0.00,meteohub,2013-05-29 23:46:00,
2013-05-29 16:51:00,68.7,50.9,29.95,WNW,299,16.0,19.0,53,0.00,,,0.00,meteohub,2013-05-29 23:51:00,
2013-05-29 16:56:00,68.5,51.3,29.95,West,277,14.0,20.0,54,0.00,,,0.00,meteohub,2013-05-29 23:56:00,
2013-05-29 17:01:00,68.4,51.6,29.96,WSW,247,15.0,21.0,55,0.00,,,0.00,meteohub,2013-05-30 00:01:00,
2013-05-29 17:06:00,68.5,51.3,29.96,WNW,299,16.0,21.0,54,0.00,,,0.00,meteohub,2013-05-30 00:06:00,
2013-05-29 17:11:00,67.8,50.5,29.96,WNW,291,13.0,21.0,54,0.00,,,0.00,meteohub,2013-05-30 00:11:00,
2013-05-29 17:16:00,68.2,50.9,29.96,WNW,287,19.0,21.0,54,0.00,,,0.00,meteohub,2013-05-30 00:16:00,
2013-05-29 17:21:00,67.5,50.7,29.96,WNW,287,16.0,21.0,55,0.00,,,0.00,meteohub,2013-05-30 00:21:00,
2013-05-29 17:26:00,67.3,51.1,29.96,West,276,13.0,22.0,56,0.00,,,0.00,meteohub,2013-05-30 00:26:00,
2013-05-29 17:31:00,67.5,51.3,29.95,West,270,9.0,22.0,56,0.00,,,0.00,meteohub,2013-05-30 00:31:00,
2013-05-29 17:36:00,67.6,51.4,29.95,West,274,17.0,22.0,56,0.00,,,0.00,meteohub,2013-05-30 00:36:00,
2013-05-29 17:41:00,67.6,50.9,29.95,West,266,16.0,21.0,55,0.00,,,0.00,meteohub,2013-05-30 00:41:00,
2013-05-29 17:46:00,67.5,50.7,29.95,WNW,300,13.0,19.0,55,0.00,,,0.00,meteohub,2013-05-30 00:46:00,
2013-05-29 17:51:00,66.9,50.2,29.95,WNW,287,12.0,21.0,55,0.00,,,0.00,meteohub,2013-05-30 00:51:00,
2013-05-29 17:56:00,66.6,50.4,29.95,WNW,289,14.0,22.0,56,0.00,,,0.00,meteohub,2013-05-30 00:56:00,
2013-05-29 18:01:00,66.7,50.5,29.95,WNW,294,15.0,23.0,56,0.00,,,0.00,meteohub,2013-05-30 01:01:00,
2013-05-29 18:06:00,66.9,50.7,29.95,West,281,18.0,23.0,56,0.00,,,0.00,meteohub,2013-05-30 01:06:00,
2013-05-29 18:11:00,66.7,50.5,29.94,WNW,293,16.0,21.0,56,0.00,,,0.00,meteohub,2013-05-30 01:11:00,
2013-05-29 18:16:00,66.7,50.5,29.95,West,279,15.0,23.0,56,0.00,,,0.00,meteohub,2013-05-30 01:16:00,
2013-05-29 18:21:00,66.0,49.8,29.94,West,279,20.0,23.0,56,0.00,,,0.00,meteohub,2013-05-30 01:21:00,
2013-05-29 18:26:00,66.0,49.8,29.94,WNW,301,16.0,23.0,56,0.00,,,0.00,meteohub,2013-05-30 01:26:00,
2013-05-29 18:31:00,65.8,49.3,29.94,WNW,284,17.0,22.0,55,0.00,,,0.00,meteohub,2013-05-30 01:31:00,
2013-05-29 18:37:00,65.8,49.3,29.95,WNW,287,17.0,24.0,55,0.00,,,0.00,meteohub,2013-05-30 01:37:00,
2013-05-29 18:42:00,65.8,49.3,29.94,WNW,284,14.0,24.0,55,0.00,,,0.00,meteohub,2013-05-30 01:42:00,
2013-05-29 18:47:00,66.0,49.5,29.94,WNW,290,13.0,24.0,55,0.00,,,0.00,meteohub,2013-05-30 01:47:00,
2013-05-29 18:52:00,65.8,49.6,29.94,WNW,294,15.0,21.0,56,0.00,,,0.00,meteohub,2013-05-30 01:52:00,
2013-05-29 18:57:00,65.8,49.6,29.94,WNW,285,14.0,21.0,56,0.00,,,0.00,meteohub,2013-05-30 01:57:00,
2013-05-29 19:02:00,65.5,49.8,29.94,West,266,15.0,21.0,57,0.00,,,0.00,meteohub,2013-05-30 02:02:00,
2013-05-29 19:07:00,64.9,49.8,29.94,West,277,13.0,20.0,58,0.00,,,0.00,meteohub,2013-05-30 02:07:00,
2013-05-29 19:12:00,64.9,49.8,29.95,WNW,291,12.0,20.0,58,0.00,,,0.00,meteohub,2013-05-30 02:12:00,
2013-05-29 19:17:00,64.9,49.8,29.95,WNW,287,11.0,19.0,58,0.00,,,0.00,meteohub,2013-05-30 02:17:00,
2013-05-29 19:22:00,64.8,49.6,29.95,West,269,11.0,19.0,58,0.00,,,0.00,meteohub,2013-05-30 02:22:00,
2013-05-29 19:27:00,64.6,49.5,29.95,West,266,11.0,18.0,58,0.00,,,0.00,meteohub,2013-05-30 02:27:00,
2013-05-29 19:32:00,64.2,49.6,29.95,West,275,10.0,18.0,59,0.00,,,0.00,meteohub,2013-05-30 02:32:00,
2013-05-29 19:37:00,64.2,49.6,29.95,West,279,8.0,18.0,59,0.00,,,0.00,meteohub,2013-05-30 02:37:00,
2013-05-29 19:42:00,64.0,49.5,29.95,West,268,7.0,18.0,59,0.00,,,0.00,meteohub,2013-05-30 02:42:00,
2013-05-29 19:47:00,63.7,49.5,29.96,WNW,289,12.0,16.0,60,0.00,,,0.00,meteohub,2013-05-30 02:47:00,
2013-05-29 19:52:00,63.3,49.3,29.95,West,266,14.0,19.0,60,0.00,,,0.00,meteohub,2013-05-30 02:52:00,
2013-05-29 19:57:00,63.1,49.1,29.96,WNW,282,10.0,19.0,60,0.00,,,0.00,meteohub,2013-05-30 02:57:00,
2013-05-29 20:02:00,63.0,48.9,29.96,West,271,12.0,19.0,60,0.00,,,0.00,meteohub,2013-05-30 03:02:00,
2013-05-29 20:07:00,63.0,48.9,29.96,WNW,295,11.0,18.0,60,0.00,,,0.00,meteohub,2013-05-30 03:07:00,
2013-05-29 20:12:00,63.0,48.4,29.96,West,280,13.0,16.0,59,0.00,,,0.00,meteohub,2013-05-30 03:12:00,
2013-05-29 20:17:00,62.8,48.2,29.96,NW,305,12.0,19.0,59,0.00,,,0.00,meteohub,2013-05-30 03:17:00,
2013-05-29 20:22:00,62.6,48.0,29.96,West,278,9.0,19.0,59,0.00,,,0.00,meteohub,2013-05-30 03:22:00,
2013-05-29 20:27:00,62.2,48.2,29.96,West,264,6.0,17.0,60,0.00,,,0.00,meteohub,2013-05-30 03:27:00,
2013-05-29 20:32:00,62.1,48.0,29.96,West,261,9.0,17.0,60,0.00,,,0.00,meteohub,2013-05-30 03:32:00,
2013-05-29 20:37:00,61.7,48.2,29.96,WNW,283,10.0,16.0,61,0.00,,,0.00,meteohub,2013-05-30 03:37:00,
2013-05-29 20:42:00,61.3,48.2,29.96,West,273,14.0,19.0,62,0.00,,,0.00,meteohub,2013-05-30 03:42:00,
2013-05-29 20:47:00,61.0,48.4,29.96,West,270,10.0,19.0,63,0.00,,,0.00,meteohub,2013-05-30 03:47:00,
2013-05-29 20:52:00,60.6,48.0,29.96,West,262,7.0,17.0,63,0.00,,,0.00,meteohub,2013-05-30 03:52:00,
2013-05-29 20:57:00,60.4,48.2,29.96,West,263,16.0,17.0,64,0.00,,,0.00,meteohub,2013-05-30 03:57:00,
2013-05-29 21:01:00,60.1,48.2,29.97,WNW,282,10.0,18.0,65,0.00,,,0.00,meteohub,2013-05-30 04:01:00,
2013-05-29 21:02:00,60.1,48.2,29.97,West,271,5.0,18.0,65,0.00,,,0.00,meteohub,2013-05-30 04:02:00,
2013-05-29 21:07:00,59.9,48.6,29.97,WNW,283,11.0,18.0,66,0.00,,,0.00,meteohub,2013-05-30 04:07:00,
2013-05-29 21:11:00,59.5,48.2,29.97,West,272,6.0,18.0,66,0.00,,,0.00,meteohub,2013-05-30 04:11:00,
2013-05-29 21:16:00,59.4,48.4,29.97,West,266,6.0,13.0,67,0.00,,,0.00,meteohub,2013-05-30 04:16:00,
2013-05-29 21:21:00,59.4,48.4,29.98,West,273,3.0,13.0,67,0.00,,,0.00,meteohub,2013-05-30 04:21:00,
2013-05-29 21:26:00,59.4,48.4,29.97,WSW,247,4.0,12.0,67,0.00,,,0.00,meteohub,2013-05-30 04:26:00,
2013-05-29 21:31:00,59.4,48.4,29.98,WSW,257,6.0,8.0,67,0.00,,,0.00,meteohub,2013-05-30 04:31:00,
2013-05-29 21:36:00,59.2,48.2,29.98,West,280,4.0,12.0,67,0.00,,,0.00,meteohub,2013-05-30 04:36:00,
2013-05-29 21:41:00,59.2,48.2,29.98,West,265,6.0,12.0,67,0.00,,,0.00,meteohub,2013-05-30 04:41:00,
2013-05-29 21:46:00,59.2,48.2,29.98,West,276,4.0,12.0,67,0.00,,,0.00,meteohub,2013-05-30 04:46:00,
2013-05-29 21:51:00,59.0,48.4,29.99,WNW,291,10.0,10.0,68,0.00,,,0.00,meteohub,2013-05-30 04:51:00,
2013-05-29 21:56:00,58.8,48.2,29.99,WNW,290,3.0,13.0,68,0.00,,,0.00,meteohub,2013-05-30 04:56:00,
2013-05-29 22:01:00,58.8,48.2,29.99,NW,305,2.0,13.0,68,0.00,,,0.00,meteohub,2013-05-30 05:01:00,
2013-05-29 22:06:00,58.6,48.6,29.99,WSW,249,10.0,13.0,69,0.00,,,0.00,meteohub,2013-05-30 05:06:00,
2013-05-29 22:11:00,58.3,48.6,29.99,West,277,6.0,13.0,70,0.00,,,0.00,meteohub,2013-05-30 05:11:00,
2013-05-29 22:16:00,58.1,48.7,29.99,West,278,6.0,13.0,71,0.00,,,0.00,meteohub,2013-05-30 05:16:00,
2013-05-29 22:21:00,58.1,48.7,29.99,WNW,295,5.0,13.0,71,0.00,,,0.00,meteohub,2013-05-30 05:21:00,
2013-05-29 22:26:00,57.9,48.6,29.99,West,265,5.0,9.0,71,0.00,,,0.00,meteohub,2013-05-30 05:26:00,
2013-05-29 22:31:00,57.9,48.6,29.99,NW,308,8.0,8.0,71,0.00,,,0.00,meteohub,2013-05-30 05:31:00,
2013-05-29 22:37:00,57.7,48.4,30.00,WNW,292,7.0,13.0,71,0.00,,,0.00,meteohub,2013-05-30 05:37:00,
2013-05-29 22:42:00,57.7,48.4,30.00,WNW,293,8.0,13.0,71,0.00,,,0.00,meteohub,2013-05-30 05:42:00,
2013-05-29 22:47:00,57.7,48.4,30.00,WNW,287,1.0,13.0,71,0.00,,,0.00,meteohub,2013-05-30 05:47:00,
2013-05-29 22:52:00,57.6,48.6,29.99,WNW,297,3.0,11.0,72,0.00,,,0.00,meteohub,2013-05-30 05:52:00,
2013-05-29 22:57:00,57.4,48.4,29.99,NW,312,4.0,9.0,72,0.00,,,0.00,meteohub,2013-05-30 05:57:00,
2013-05-29 23:02:00,57.4,48.4,29.99,WNW,298,0.0,9.0,72,0.00,,,0.00,meteohub,2013-05-30 06:02:00,
2013-05-29 23:07:00,57.4,48.4,29.99,WNW,298,1.0,9.0,72,0.00,,,0.00,meteohub,2013-05-30 06:07:00,
2013-05-29 23:12:00,57.2,48.6,29.99,NW,305,3.0,9.0,73,0.00,,,0.00,meteohub,2013-05-30 06:12:00,
2013-05-29 23:17:00,57.2,48.6,29.99,NW,305,2.0,4.0,73,0.00,,,0.00,meteohub,2013-05-30 06:17:00,
2013-05-29 23:22:00,57.0,48.4,30.00,NW,308,0.0,4.0,73,0.00,,,0.00,meteohub,2013-05-30 06:22:00,
2013-05-29 23:27:00,56.8,48.6,30.00,NW,312,2.0,4.0,74,0.00,,,0.00,meteohub,2013-05-30 06:27:00,
2013-05-29 23:32:00,56.8,48.6,30.00,NW,312,3.0,4.0,74,0.00,,,0.00,meteohub,2013-05-30 06:32:00,
2013-05-29 23:37:00,56.8,48.6,29.99,NW,312,1.0,4.0,74,0.00,,,0.00,meteohub,2013-05-30 06:37:00,
2013-05-29 23:42:00,57.0,48.7,29.99,NW,308,4.0,4.0,74,0.00,,,0.00,meteohub,2013-05-30 06:42:00,
2013-05-29 23:47:00,57.6,48.6,30.00,West,276,5.0,7.0,72,0.00,,,0.00,meteohub,2013-05-30 06:47:00,
2013-05-29 23:52:00,57.7,48.7,30.00,WNW,283,10.0,10.0,72,0.00,,,0.00,meteohub,2013-05-30 06:52:00,
2013-05-29 23:57:00,57.7,48.7,29.99,WSW,258,6.0,12.0,72,0.00,,,0.00,meteohub,2013-05-30 06:57:00,